MAS2PL WSSS-WMKK

Flight info

Callsign MAS2PL
Flight time 0h 52m
Altitude 26000
Route MASBO3A MASBO A457 GUPTA GUPTA1K
Aircraft B738/M-SDE2E3FGHIRWXY/LB1

Departure

Time 2026-05-06 21:45
Airport Singapore Changi Airport (WSSS)

Arrival

Time 2026-05-06 22:37
Airport Kuala Lumpur International Airport (WMKK)
Time Latitude Longitude Altitude Speed Heading
2026-05-06 21:25 1.35707 103.99289 29 ft 0 kts 142°
2026-05-06 21:33 1.35708 103.99289 29 ft 2 kts 142°
2026-05-06 21:33 1.35728 103.99273 29 ft 4 kts 138°
2026-05-06 21:33 1.35748 103.99254 29 ft 4 kts 129°
2026-05-06 21:34 1.35761 103.99232 29 ft 4 kts 101°
2026-05-06 21:34 1.35760 103.99214 29 ft 1 kts 42°
2026-05-06 21:36 1.35770 103.99224 29 ft 5 kts 42°
2026-05-06 21:37 1.35810 103.99269 29 ft 12 kts 52°
2026-05-06 21:37 1.35867 103.99350 29 ft 15 kts 64°
2026-05-06 21:37 1.35871 103.99452 29 ft 15 kts 110°
2026-05-06 21:37 1.35815 103.99530 29 ft 14 kts 173°
2026-05-06 21:38 1.35720 103.99501 29 ft 14 kts 201°
2026-05-06 21:38 1.35632 103.99463 29 ft 14 kts 204°
2026-05-06 21:38 1.35547 103.99427 29 ft 13 kts 202°
2026-05-06 21:38 1.35465 103.99393 29 ft 13 kts 203°
2026-05-06 21:39 1.35380 103.99357 29 ft 14 kts 203°
2026-05-06 21:39 1.35281 103.99315 29 ft 16 kts 203°
2026-05-06 21:39 1.35169 103.99267 29 ft 18 kts 203°
2026-05-06 21:39 1.35046 103.99217 29 ft 20 kts 203°
2026-05-06 21:40 1.34923 103.99163 29 ft 19 kts 203°
2026-05-06 21:40 1.34801 103.99112 29 ft 19 kts 202°
2026-05-06 21:40 1.34677 103.99060 29 ft 20 kts 203°
2026-05-06 21:40 1.34544 103.99004 29 ft 21 kts 202°
2026-05-06 21:41 1.34405 103.98947 29 ft 22 kts 203°
2026-05-06 21:41 1.34265 103.98887 29 ft 21 kts 203°
2026-05-06 21:41 1.34130 103.98830 29 ft 21 kts 203°
2026-05-06 21:41 1.33998 103.98775 29 ft 20 kts 203°
2026-05-06 21:42 1.33871 103.98720 29 ft 20 kts 203°
2026-05-06 21:42 1.33747 103.98669 29 ft 19 kts 202°
2026-05-06 21:42 1.33628 103.98618 29 ft 18 kts 202°
2026-05-06 21:42 1.33506 103.98567 29 ft 20 kts 203°
2026-05-06 21:43 1.33375 103.98512 29 ft 21 kts 203°
2026-05-06 21:43 1.33238 103.98455 29 ft 21 kts 202°
2026-05-06 21:43 1.33104 103.98399 29 ft 21 kts 202°
2026-05-06 21:43 1.32991 103.98357 29 ft 17 kts 182°
2026-05-06 21:44 1.32919 103.98433 29 ft 16 kts 113°
2026-05-06 21:44 1.32924 103.98515 29 ft 9 kts 25°
2026-05-06 21:44 1.32930 103.98518 29 ft 1 kts 22°
2026-05-06 21:44 1.33144 103.98607 29 ft 69 kts 22°
2026-05-06 21:45 1.33796 103.98884 29 ft 132 kts 23°
2026-05-06 21:45 1.34792 103.99291 216 ft 168 kts 21°
2026-05-06 21:45 1.35903 103.99773 798 ft 178 kts 25°
2026-05-06 21:45 1.37038 104.00283 1471 ft 183 kts 23°
2026-05-06 21:46 1.38208 104.00772 2225 ft 182 kts 23°
2026-05-06 21:46 1.39415 104.01281 2659 ft 200 kts 23°
2026-05-06 21:46 1.40763 104.01843 2957 ft 220 kts 22°
2026-05-06 21:46 1.42265 104.02469 3000 ft 246 kts 22°
2026-05-06 21:47 1.43868 104.03140 2983 ft 253 kts 23°
2026-05-06 21:47 1.45497 104.03823 2986 ft 253 kts 23°
2026-05-06 21:47 1.47137 104.04511 3050 ft 263 kts 23°
2026-05-06 21:47 1.48948 104.04963 3519 ft 274 kts 359°
2026-05-06 21:48 1.50808 104.04614 4319 ft 274 kts 338°
2026-05-06 21:48 1.52525 104.03763 5092 ft 276 kts 331°
2026-05-06 21:48 1.54218 104.02829 5813 ft 280 kts 330°
2026-05-06 21:48 1.55933 104.01874 6523 ft 284 kts 330°
2026-05-06 21:49 1.57669 104.00913 7207 ft 286 kts 331°
2026-05-06 21:49 1.59429 103.99948 7912 ft 289 kts 331°
2026-05-06 21:49 1.61205 103.98980 8607 ft 293 kts 332°
2026-05-06 21:49 1.63004 103.98004 9297 ft 296 kts 332°
2026-05-06 21:50 1.64825 103.97019 9968 ft 299 kts 332°
2026-05-06 21:50 1.66684 103.96014 10388 ft 313 kts 332°
2026-05-06 21:50 1.68667 103.94944 10531 ft 334 kts 332°
2026-05-06 21:50 1.70771 103.93810 10683 ft 354 kts 332°
2026-05-06 21:51 1.72975 103.92606 10951 ft 367 kts 329°
2026-05-06 21:51 1.74892 103.90893 11402 ft 375 kts 306°
2026-05-06 21:51 1.76042 103.88561 12012 ft 378 kts 285°
2026-05-06 21:51 1.76512 103.85972 12592 ft 381 kts 278°
2026-05-06 21:52 1.76876 103.83330 13112 ft 386 kts 278°
2026-05-06 21:52 1.77237 103.80652 13651 ft 391 kts 278°
2026-05-06 21:52 1.77614 103.77949 14163 ft 394 kts 278°
2026-05-06 21:52 1.78012 103.75228 14706 ft 397 kts 279°
2026-05-06 21:53 1.78423 103.72482 15248 ft 400 kts 279°
2026-05-06 21:53 1.78839 103.69724 15777 ft 403 kts 279°
2026-05-06 21:53 1.79246 103.66973 16289 ft 406 kts 279°
2026-05-06 21:53 1.79658 103.64129 16798 ft 410 kts 279°
2026-05-06 21:54 1.80058 103.61336 17295 ft 413 kts 279°
2026-05-06 21:54 1.80471 103.58452 17791 ft 416 kts 279°
2026-05-06 21:54 1.80883 103.55577 18248 ft 419 kts 279°
2026-05-06 21:54 1.81299 103.52685 18658 ft 422 kts 279°
2026-05-06 21:55 1.81718 103.49773 19073 ft 425 kts 279°
2026-05-06 21:55 1.82140 103.46842 19482 ft 427 kts 278°
2026-05-06 21:55 1.82564 103.43896 19886 ft 429 kts 278°
2026-05-06 21:55 1.82985 103.40974 20269 ft 432 kts 278°
2026-05-06 21:56 1.83414 103.37990 20652 ft 435 kts 278°
2026-05-06 21:56 1.83846 103.34989 21030 ft 437 kts 278°
2026-05-06 21:56 1.84281 103.31970 21404 ft 440 kts 278°
2026-05-06 21:56 1.84766 103.28900 21767 ft 442 kts 284°
2026-05-06 21:57 1.85850 103.26067 22086 ft 444 kts 297°
2026-05-06 21:57 1.87252 103.23316 22465 ft 445 kts 298°
2026-05-06 21:57 1.88669 103.20560 22804 ft 448 kts 298°
2026-05-06 21:57 1.90086 103.17774 23128 ft 451 kts 298°
2026-05-06 21:58 1.91495 103.14964 23448 ft 453 kts 297°
2026-05-06 21:58 1.92899 103.12131 23726 ft 455 kts 297°
2026-05-06 21:58 1.94298 103.09290 24027 ft 457 kts 297°
2026-05-06 21:58 1.95699 103.06435 24313 ft 458 kts 297°
2026-05-06 21:59 1.97105 103.03569 24594 ft 460 kts 297°
2026-05-06 21:59 1.98517 103.00692 24850 ft 462 kts 297°
2026-05-06 21:59 1.99940 102.97794 25143 ft 463 kts 297°
2026-05-06 21:59 2.01342 102.94940 25430 ft 464 kts 297°
2026-05-06 22:00 2.02766 102.92041 25694 ft 466 kts 297°
2026-05-06 22:00 2.04197 102.89127 25842 ft 469 kts 297°
2026-05-06 22:00 2.05639 102.86185 25837 ft 474 kts 297°
2026-05-06 22:00 2.07085 102.83210 25842 ft 478 kts 297°
2026-05-06 22:01 2.08540 102.80208 25851 ft 481 kts 296°
2026-05-06 22:01 2.10003 102.77187 25846 ft 484 kts 296°
2026-05-06 22:01 2.11453 102.74192 25823 ft 470 kts 297°
2026-05-06 22:01 2.12851 102.71308 25817 ft 452 kts 297°
2026-05-06 22:02 2.14199 102.68528 25776 ft 437 kts 297°
2026-05-06 22:02 2.15524 102.65801 25115 ft 438 kts 297°
2026-05-06 22:02 2.17166 102.63198 23918 ft 452 kts 314°
2026-05-06 22:02 2.19483 102.60996 22835 ft 462 kts 319°
2026-05-06 22:03 2.21853 102.58847 22337 ft 455 kts 319°
2026-05-06 22:03 2.24159 102.56743 22091 ft 443 kts 319°
2026-05-06 22:03 2.26414 102.54665 21896 ft 444 kts 319°
2026-05-06 22:03 2.28710 102.52533 21687 ft 453 kts 318°
2026-05-06 22:04 2.31013 102.50380 21467 ft 454 kts 318°
2026-05-06 22:04 2.33305 102.48227 21257 ft 450 kts 318°
2026-05-06 22:04 2.35580 102.46087 21046 ft 447 kts 318°
2026-05-06 22:04 2.37839 102.43959 20842 ft 445 kts 318°
2026-05-06 22:05 2.40091 102.41839 20638 ft 444 kts 318°
2026-05-06 22:05 2.42333 102.39730 20438 ft 443 kts 318°
2026-05-06 22:05 2.44576 102.37619 20232 ft 442 kts 318°
2026-05-06 22:05 2.46813 102.35516 20030 ft 441 kts 318°
2026-05-06 22:06 2.49042 102.33419 19820 ft 441 kts 318°
2026-05-06 22:06 2.51279 102.31315 19619 ft 440 kts 318°
2026-05-06 22:06 2.53506 102.29220 19416 ft 440 kts 318°
2026-05-06 22:06 2.55733 102.27125 19213 ft 439 kts 318°
2026-05-06 22:07 2.57925 102.25063 19014 ft 438 kts 318°
2026-05-06 22:07 2.60140 102.22979 18813 ft 437 kts 318°
2026-05-06 22:07 2.62356 102.20893 18602 ft 436 kts 318°
2026-05-06 22:07 2.64556 102.18822 18401 ft 435 kts 318°
2026-05-06 22:08 2.66757 102.16752 18203 ft 434 kts 318°
2026-05-06 22:08 2.68953 102.14684 17980 ft 432 kts 318°
2026-05-06 22:08 2.71139 102.12627 17765 ft 431 kts 318°
2026-05-06 22:08 2.73316 102.10579 17544 ft 429 kts 318°
2026-05-06 22:09 2.75486 102.08536 17341 ft 428 kts 318°
2026-05-06 22:09 2.77645 102.06503 17139 ft 426 kts 318°
2026-05-06 22:09 2.79797 102.04477 16944 ft 424 kts 318°
2026-05-06 22:09 2.81942 102.02457 16736 ft 422 kts 318°
2026-05-06 22:10 2.84080 102.00444 16546 ft 421 kts 318°
2026-05-06 22:10 2.86210 101.98440 16355 ft 420 kts 318°
2026-05-06 22:10 2.88338 101.96437 16157 ft 419 kts 318°
2026-05-06 22:10 2.89745 101.95113 16035 ft 418 kts 318°
2026-05-06 22:11 2.91863 101.93120 15841 ft 418 kts 318°
2026-05-06 22:11 2.93981 101.91126 15650 ft 417 kts 318°
2026-05-06 22:11 2.96093 101.89138 15446 ft 416 kts 318°
2026-05-06 22:11 2.98194 101.87160 15255 ft 415 kts 318°
2026-05-06 22:12 3.00976 101.84539 15010 ft 414 kts 319°
2026-05-06 22:12 3.02392 101.83206 14871 ft 414 kts 319°
2026-05-06 22:12 3.04481 101.81238 14685 ft 413 kts 319°
2026-05-06 22:12 3.06575 101.79266 14484 ft 412 kts 319°
2026-05-06 22:13 3.08659 101.77302 14299 ft 411 kts 319°
2026-05-06 22:13 3.10735 101.75347 14108 ft 410 kts 319°
2026-05-06 22:13 3.12806 101.73396 13906 ft 408 kts 319°
2026-05-06 22:13 3.14846 101.71473 13727 ft 407 kts 319°
2026-05-06 22:14 3.16926 101.69514 13525 ft 405 kts 319°
2026-05-06 22:14 3.18979 101.67580 13314 ft 404 kts 318°
2026-05-06 22:14 3.21019 101.65658 13115 ft 402 kts 318°
2026-05-06 22:14 3.23024 101.63768 12926 ft 400 kts 318°
2026-05-06 22:15 3.25046 101.61863 12738 ft 398 kts 318°
2026-05-06 22:15 3.27051 101.59973 12697 ft 393 kts 318°
2026-05-06 22:15 3.29040 101.58098 12536 ft 393 kts 318°
2026-05-06 22:15 3.31032 101.56220 12371 ft 394 kts 318°
2026-05-06 22:16 3.33034 101.54333 12191 ft 395 kts 318°
2026-05-06 22:16 3.35034 101.52447 12009 ft 396 kts 318°
2026-05-06 22:16 3.37039 101.50556 11829 ft 396 kts 317°
2026-05-06 22:16 3.39045 101.48665 11645 ft 396 kts 317°
2026-05-06 22:17 3.41027 101.46794 11449 ft 387 kts 317°
2026-05-06 22:17 3.42669 101.44722 11237 ft 376 kts 297°
2026-05-06 22:17 3.43423 101.42274 11090 ft 364 kts 276°
2026-05-06 22:17 3.43423 101.39785 10938 ft 353 kts 262°
2026-05-06 22:18 3.42785 101.37461 10769 ft 342 kts 245°
2026-05-06 22:18 3.41790 101.35337 10622 ft 332 kts 242°
2026-05-06 22:18 3.40778 101.33286 10459 ft 324 kts 242°
2026-05-06 22:18 3.39803 101.31280 10313 ft 317 kts 243°
2026-05-06 22:19 3.38865 101.29316 10168 ft 310 kts 243°
2026-05-06 22:19 3.37930 101.27398 10021 ft 302 kts 238°
2026-05-06 22:19 3.36622 101.25802 9843 ft 293 kts 222°
2026-05-06 22:19 3.35180 101.24382 9675 ft 288 kts 222°
2026-05-06 22:20 3.33781 101.22972 9538 ft 281 kts 222°
2026-05-06 22:20 3.32441 101.21602 9583 ft 273 kts 223°
2026-05-06 22:20 3.30963 101.20446 9562 ft 269 kts 203°
2026-05-06 22:20 3.29252 101.19679 9626 ft 271 kts 202°
2026-05-06 22:21 3.27541 101.18883 9648 ft 270 kts 202°
2026-05-06 22:21 3.25848 101.18072 9702 ft 269 kts 203°
2026-05-06 22:21 3.24154 101.17277 9762 ft 268 kts 198°
2026-05-06 22:21 3.22344 101.16933 9828 ft 264 kts 182°
2026-05-06 22:22 3.20521 101.16783 9941 ft 266 kts 182°
2026-05-06 22:22 3.18694 101.16608 9978 ft 263 kts 184°
2026-05-06 22:22 3.16873 101.16423 9999 ft 262 kts 184°
2026-05-06 22:22 3.15088 101.16312 9984 ft 251 kts 172°
2026-05-06 22:23 3.13422 101.16682 10006 ft 242 kts 163°
2026-05-06 22:23 3.11804 101.17103 10000 ft 239 kts 164°
2026-05-06 22:23 3.10206 101.17538 10007 ft 237 kts 156°
2026-05-06 22:23 3.08902 101.18501 10024 ft 239 kts 125°
2026-05-06 22:24 3.08242 101.20027 10020 ft 241 kts 98°
2026-05-06 22:24 3.08363 101.21685 9808 ft 243 kts 75°
2026-05-06 22:24 3.08980 101.23302 9118 ft 256 kts 69°
2026-05-06 22:24 3.09731 101.24947 8554 ft 262 kts 67°
2026-05-06 22:25 3.10502 101.26602 8108 ft 262 kts 67°
2026-05-06 22:25 3.11261 101.28249 7755 ft 259 kts 68°
2026-05-06 22:25 3.12004 101.29880 7377 ft 258 kts 68°
2026-05-06 22:25 3.12744 101.31521 6935 ft 259 kts 67°
2026-05-06 22:26 3.13479 101.33162 6550 ft 258 kts 68°
2026-05-06 22:26 3.14208 101.34794 6197 ft 256 kts 68°
2026-05-06 22:26 3.14930 101.36415 5813 ft 254 kts 68°
2026-05-06 22:26 3.15635 101.37998 5501 ft 249 kts 68°
2026-05-06 22:27 3.16288 101.39561 5329 ft 238 kts 77°
2026-05-06 22:27 3.16268 101.41151 5101 ft 227 kts 110°
2026-05-06 22:27 3.15532 101.42521 4990 ft 224 kts 130°
2026-05-06 22:27 3.14412 101.43594 4942 ft 223 kts 138°
2026-05-06 22:28 3.13234 101.44625 4879 ft 226 kts 138°
2026-05-06 22:28 3.12045 101.45666 4824 ft 228 kts 138°
2026-05-06 22:28 3.10852 101.46716 4766 ft 229 kts 138°
2026-05-06 22:28 3.09657 101.47772 4715 ft 228 kts 138°
2026-05-06 22:29 3.08479 101.48816 4630 ft 225 kts 138°
2026-05-06 22:29 3.07314 101.49850 4525 ft 223 kts 137°
2026-05-06 22:29 3.06139 101.50857 4503 ft 222 kts 141°
2026-05-06 22:29 3.04909 101.51796 4504 ft 222 kts 143°
2026-05-06 22:30 3.03662 101.52697 4496 ft 221 kts 144°
2026-05-06 22:30 3.02499 101.53512 4491 ft 219 kts 144°
2026-05-06 22:30 3.01279 101.54354 4508 ft 206 kts 144°
2026-05-06 22:30 3.00147 101.55126 4488 ft 188 kts 145°
2026-05-06 22:31 2.99092 101.55834 4495 ft 180 kts 145°
2026-05-06 22:31 2.98063 101.56523 4530 ft 178 kts 145°
2026-05-06 22:31 2.97016 101.57229 4348 ft 184 kts 145°
2026-05-06 22:31 2.95960 101.57941 4115 ft 181 kts 145°
2026-05-06 22:32 2.94927 101.58638 3885 ft 177 kts 144°
2026-05-06 22:32 2.93931 101.59311 3676 ft 174 kts 144°
2026-05-06 22:32 2.92925 101.59991 3461 ft 175 kts 144°
2026-05-06 22:32 2.91914 101.60673 3236 ft 174 kts 144°
2026-05-06 22:33 2.90915 101.61347 3020 ft 171 kts 144°
2026-05-06 22:33 2.89960 101.61991 2793 ft 162 kts 144°
2026-05-06 22:33 2.89041 101.62612 2594 ft 158 kts 144°
2026-05-06 22:33 2.88127 101.63230 2400 ft 159 kts 144°
2026-05-06 22:34 2.87206 101.63852 2209 ft 159 kts 144°
2026-05-06 22:34 2.86288 101.64472 1990 ft 158 kts 144°
2026-05-06 22:34 2.85380 101.65085 1786 ft 157 kts 144°
2026-05-06 22:34 2.84476 101.65696 1595 ft 156 kts 144°
2026-05-06 22:35 2.83576 101.66304 1378 ft 156 kts 146°
2026-05-06 22:35 2.82678 101.66908 1193 ft 153 kts 144°
2026-05-06 22:35 2.81829 101.67484 1028 ft 143 kts 144°
2026-05-06 22:35 2.81014 101.68072 893 ft 144 kts 143°
2026-05-06 22:36 2.80195 101.68628 667 ft 141 kts 145°
2026-05-06 22:36 2.79403 101.69142 513 ft 135 kts 144°
2026-05-06 22:36 2.78593 101.69685 295 ft 143 kts 146°
2026-05-06 22:36 2.77758 101.70241 124 ft 143 kts 145°
2026-05-06 22:37 2.76965 101.70780 63 ft 127 kts 146°
2026-05-06 22:37 2.76332 101.71205 68 ft 92 kts 146°
2026-05-06 22:37 2.75910 101.71487 73 ft 46 kts 146°
2026-05-06 22:37 2.75721 101.71614 73 ft 18 kts 146°
2026-05-06 22:38 2.75614 101.71621 74 ft 17 kts 229°
2026-05-06 22:38 2.75590 101.71591 73 ft 2 kts 232°
2026-05-06 22:38 2.75574 101.71571 74 ft 7 kts 233°
2026-05-06 22:38 2.75583 101.71480 70 ft 18 kts 316°
2026-05-06 22:39 2.75647 101.71383 63 ft 18 kts 262°
2026-05-06 22:39 2.75701 101.71283 67 ft 17 kts 323°
2026-05-06 22:39 2.75793 101.71221 70 ft 12 kts 326°
2026-05-06 22:39 2.75839 101.71159 68 ft 12 kts 268°
2026-05-06 22:40 2.75802 101.71089 72 ft 11 kts 235°
2026-05-06 22:40 2.75742 101.71045 72 ft 11 kts 203°
2026-05-06 22:40 2.75691 101.70990 68 ft 11 kts 234°
2026-05-06 22:40 2.75650 101.70930 66 ft 10 kts 237°
2026-05-06 22:41 2.75578 101.70821 69 ft 5 kts 236°
2026-05-06 22:41 2.75548 101.70812 64 ft 5 kts 163°
2026-05-06 22:41 2.75527 101.70823 66 ft 0 kts 148°